Погода в Зиме

Погода в Зиме : погода сейчас, прогноз погоды и архив. Всё, что Вы хотите узнать о погоде в Зиме!

Поиск расширенной информации на нашем сайте:

Другие новости

Новости СМИ2

Главная страница сайта

Новости сайта

03.07.2017

Напоминаем, что на нашем специализированном сайте Метеоцентр.Азия вы можете получить высокодетализированные автоматические прогнозы погоды по пунктам России, СНГ и мира в авиационном формате (включающие направление и скорость ветра, видимость, явления погоды, количество и форму облачности, нижнюю и верхнюю границу облачности).

Рекомендуем: Воздушная завеса Wing E150

Погода в Зиме - сегодня

Время (UTC), дата Ветер
(°,м/с) 
Видим.   Явления Облачность Т
(°С)
Тd
(°С)
f(%) Тe
(°С)
Pmin
(гПа)
dP
(гПа)
Po
(мм)
O2
(г/м3)
Тmin Tmax R s Состояние
почвы
00 12.12.17 тихо ()   н/о    ясно 
-30.9 -34.3 72 -31  1037.1  -1.3  729  333  -32.2      23  равномерный
сухой снег
100% 
03 12.12.17 тихо ()   20000 м    ясно 
-26.4 -29.6 74 -26  1034.9  -0.9  729  327           
06 12.12.17 330 (СЗ) 20000 м    10/0 верхняя 
[Ci fib]
-21.8 -25.1 75 -22  1031.7  -1.9  727  320           
09 12.12.17 300 (СЗ) 20000 м    10/0 верхняя 
[Ci fib]
-20.8 -23.9 76 -21  1030.9  -0.6  727  319           
12 12.12.17 040 (СВ) н/о    10/0 средняя, верхняя 
[Ac trans|Ci fib]
-21.7 -24.4 79 -22  1031.8  0.6  727  320    -20.8       
15 12.12.17 070 (В) н/о  слаб. снег  10/0 средняя 
[As op]
-20.7 -23.5 78 -21  1032.3  0.7  728  319           
18 12.12.17 230 (ЮЗ) н/о  слаб. снег  10/0 средняя 
[As op]
-19.8 -22.4 80 -20  1033.4  1.3  729  318           
21 12.12.17 200 (Ю) н/о  слаб. снег  10/0 средняя 
[As op]
-19.1 -21.7 80 -19  1034.3  0.9  730  318           
00 13.12.17 тихо ()   н/о  слаб. снег  10/0 верхняя 
[Cs]
-19.1 -21.4 82 -19  1035.6  0.9  731  318  -21.9    0.9  23  равномерный
сухой снег
100% 
03 13.12.17 180 (Ю) 4000 м  слаб. снег  10/0 средняя 
[As op]
-17.4 -19.9 81 -18  1036.6  1.3  732  316           
06 13.12.17 200 (Ю) 4000 м  слаб. снег  10/0 средняя 
[As op]
-13.8 -17 77 -14  1036  0.3  732  312           
09 13.12.17 тихо ()   20000 м  {снег}  10/0 средняя, верхняя 
[Ac trans|Ci fib]
-16.1 -18.4 82 -16  1037.4  0.8  732  315           
12 13.12.17 300 (СЗ) н/о  слаб. снег  10/0 средняя 
[As op]
-17.4 -19.1 87 -18  1039.3  1.5  734  317    -13.3     
15 13.12.17 тихо ()   н/о  слаб. снег  10/0 средняя 
[As op]
-18.7 -20.7 84 -19  1040.5  0.7  734  319           
18 13.12.17 120 (ЮВ) н/о  слаб. снег  10/0 средняя 
[As op]
-19.2 -21.2 84 -19  1040.4  0.1  734  320           
21 13.12.17 тихо ()   н/о  слаб. снег  10/0 средняя 
[As op]
-18.9 -20.9 84 -19  1039.9  -0.4  734  319           
00 14.12.17 230 (ЮЗ) н/о  слаб. снег  10/0 средняя 
[As op]
-14.5 -15.9 89 -15  1038.5  -0.3  733  313  -20.1    24  равномерный
сухой снег
100% 
03 14.12.17 210 (ЮЗ) 1000 м  снег  10/0 средняя 
[As op]
-13.2 -14.8 88 -15  1038.5  0.2  734  312           
06 14.12.17 320 (СЗ) 10 км  слаб. снег  10/0 средняя, верхняя 
[Ac trans|Cs]
-11.4 -14.1 80 -16  1038.5  0.4  734  310           
09 14.12.17 310 (СЗ) 20000 м  {снег}  10/0 средняя, верхняя 
[Ac trans|Cs]
-13.2 -18.1 67 -18  1041  735  313           
12 14.12.17 300 (СЗ) н/о  {снег}  10/0 верхняя 
[Cs]
-14.6 -18.1 75 -18  1043.7  2.3  737  315    -10.6     
15 14.12.17 310 (СЗ) н/о    10/0 верхняя 
[Ci fib]
-16.7 -20.4 73 -19  1045.8  1.4  738  318           
18 14.12.17 240 (ЮЗ) н/о    10/0 верхняя 
[Cs]
-17.5 -19.9 82 -18  1046.3  0.3  738  319           
21 14.12.17 220 (ЮЗ) н/о  слаб. снег  10/0 средняя 
[As op]
-15.7 -17.6 85 -16  1045.4  -0.4  738  317           
00 15.12.17 220 (ЮЗ) н/о  слаб. снег  10/0 средняя 
[As op]
-14.1 -15.8 87 -16  1044.9  0.1  738  315  -18.6    26  равномерный
сухой снег
100% 
Время (UTC), дата Ветер
(°,м/с) 
Видим.   Явления Облачность Т
(°С)
Тd
(°С)
f(%) Тe
(°С)
Pmin
(гПа)
dP
(гПа)
Po
(мм)
O2
(г/м3)
Тmin Tmax R s Состояние
почвы

Для получения пояснительной информации подведите курсор к названию столбца.

ПОГОДА в Зиме - архив

Всё, что Вы хотите узнать о погоде в Зиме - удобно и подробно!

Выберите нужную дату (начиная с 1 января 2015* года) и нажмите кнопку "Найти".
Будут отображены архивные сводки погоды по пункту Зима, начиная с указанной даты.


Отображать данные в формате CSV (для использования в таблицах Excel)


Внимание! Наш архив погоды предназначен исключительно для личного некоммерческого использования в познавательных целях. Если Вам необходимы официальные справки о состоянии погоды (для производственных, юридических, коммерческих и т.п. целей), обращайтесь в органы Росгидромета.

*Примечание: данная дата относится к архиву по метеостанциям СССР (Россия, СНГ, Балтия).
Архив по метеостанциям Зарубежной Европы и Азии (кроме Китая) хранится 10 дней, по другим регионам земного шара (Китай, Африка, Америка, Австралия, Океания) - 1 день.

Зима - район местоположения метеостанции


Название, широта, долгота, высота метеостанции:
Зима 53.9°ш. 102.1°д. 458 м над ур. моря [Российская Федерация]

Дополнительная информация

В oтличие oт бoльшинства пoгoдных сайтoв мы публикуем пoдрoбную метеoинфoрмацию в детальнoм прoфессиoнальнoм фoрмате.

Характеристики температуры и влажнoсти вoздуха измеряются на высoте 2 м в тени вдали oт зданий и деревьев.
Скoрoсть ветра измеряется на высoте 10 м (на урoвне рoста челoвека скoрoсть ветра ниже в 1.5-2 раза). Если метеoстанция нахoдится в гoрoде или в лесу, тo скoрoсть ветра занижена на 2-4 м/с пo сравнению с oткрытым местoм. Скoрoсть ветра над акватoриями крупных рек и oзёр, а также на вершинах хoлмoв на 2-5 м/с выше, чем в oбычных услoвиях.
Атмoсфернoе давление в разных тoчках местнoсти мoжет значительнo oтличаться oт давления на метеoстанции, в зависимoсти oт услoвий рельефа (при пoдъёме на 10 м давление пoнижается примернo на 1 мм рт.ст.).